This demonstration page uses our WeatherBlox Daily Observations layout. Learn more.

Left ArrowRight Arrow

Hourly Observations for July 8, 2018

Temp ( °F °C ) Dew Point ( °F °C ) Humidity (%) Winds ( mph kmh ) Pressure ( in mb ) Visibility ( mi km ) Precip ( " mm )
12:53 am 00:53 Partly Cloudy 69 20.6 67 19.4 93 93 N 7 11 30.02 1017 10 16 0.00 0.00
1:53 am 01:53 Partly Cloudy 69 20.6 68 20 96 96 NNE 7 11 30.02 1017 10 16 0.00 0.00
2:53 am 02:53 Mostly Clear 70 21.1 67 19.4 90 90 ENE 3 6 30.00 1016 10 16 0.00 0.00
3:53 am 03:53 Clear 70 21.1 69 20.6 97 97 Calm 30.02 1017 10 16 0.00 0.00
4:53 am 04:53 Clear 70 21.1 70 21.1 100 100 N 6 9 30.01 1016 10 16 0.00 0.00
5:53 am 05:53 Clear 70 21.1 69 20.6 97 97 N 5 7 30.03 1017 10 16 0.00 0.00
6:53 am 06:53 Clear 70 21.1 69 20.6 97 97 NNE 5 7 30.04 1017 10 16 0.00 0.00
7:53 am 07:53 Sunny 71 21.7 69 20.6 94 94 NE 3 6 30.05 1018 10 16 0.00 0.00
8:53 am 08:53 Sunny 72 22.2 69 20.6 91 91 E 6 9 30.07 1018 10 16 0.00 0.00
9:53 am 09:53 Sunny 73 22.8 68 20 84 84 E 6 9 30.08 1019 10 16 0.00 0.00
10:53 am 10:53 Partly Cloudy 76 24.4 67 19.4 74 74 E 5 7 30.08 1019 10 16 0.00 0.00
11:53 am 11:53 Mostly Sunny 77 25 66 18.9 69 69 ESE 5 7 30.09 1019 10 16 0.00 0.00
12:53 pm 12:53 Mostly Sunny 81 27.2 66 18.9 61 61 NNE 6 9 30.06 1018 10 16 0.00 0.00
1:53 pm 13:53 Sunny 82 27.8 66 18.9 58 58 N 8 13 30.03 1017 10 16 0.00 0.00
2:53 pm 14:53 Sunny 86 30 66 18.9 51 51 NE 7 11 29.99 1016 10 16 0.00 0.00
3:53 pm 15:53 Sunny 87 30.6 64 17.8 46 46 SE 5 7 29.97 1015 10 16 0.00 0.00
4:53 pm 16:53 Sunny 89 31.7 63 17.2 42 42 E 8 13 29.94 1014 10 16 0.00 0.00
5:53 pm 17:53 Sunny 89 31.7 60 15.6 38 38 VRB 3 6 29.93 1014 10 16 0.00 0.00
6:53 pm 18:53 Partly Cloudy 85 29.4 61 16.1 45 45 ESE 20 31 29.94 1014 10 16 0.00 0.00
7:05 pm 19:05 Partly Cloudy 81 27.2 63 17.2 54 54 ESE 23 37 29.88 1012 10 16 0.00 0.00
7:14 pm 19:14 Mostly Cloudy with Thunderstorms 79 26.1 63 17.2 58 58 SE 22 35 29.91 1013 10 16 0.00 0.00
7:53 pm 19:53 Partly Cloudy 76 24.4 63 17.2 64 64 SE 12 19 29.98 1015 10 16 0.00 0.00
8:53 pm 20:53 Sunny 74 23.3 67 19.4 79 79 S 6 9 29.99 1016 10 16 0.00 0.00
9:53 pm 21:53 Clear 74 23.3 67 19.4 79 79 S 5 7 29.99 1016 10 16 0.00 0.00
10:53 pm 22:53 Clear 73 22.8 68 20 84 84 E 5 7 30.02 1017 10 16 0.00 0.00
11:53 pm 23:53 Clear 71 21.7 67 19.4 87 87 NE 5 7 30.04 1017 10 16 0.00 0.00

Powered by AerisWeather